Year,Month,Day,Hour,Minute,Value (Times are PST for insolation in W/m^2)
2013,11,07,00,00,0.00
2013,11,07,00,01,0.00
2013,11,07,00,02,0.00
2013,11,07,00,03,0.00
2013,11,07,00,04,0.00
2013,11,07,00,05,0.00
2013,11,07,00,06,0.00
2013,11,07,00,07,0.00
2013,11,07,00,08,0.00
2013,11,07,00,09,0.00
2013,11,07,00,10,0.00
2013,11,07,00,11,0.00
2013,11,07,00,12,0.00
2013,11,07,00,13,0.00
2013,11,07,00,14,0.00
2013,11,07,00,15,0.00
2013,11,07,00,16,0.00
2013,11,07,00,17,0.00
2013,11,07,00,18,0.00
2013,11,07,00,19,0.00
2013,11,07,00,20,0.00
2013,11,07,00,21,0.00
2013,11,07,00,22,0.00
2013,11,07,00,23,0.00
2013,11,07,00,24,0.00
2013,11,07,00,25,0.00
2013,11,07,00,26,0.00
2013,11,07,00,27,0.00
2013,11,07,00,28,0.00
2013,11,07,00,29,0.00
2013,11,07,00,30,0.00
2013,11,07,00,31,0.00
2013,11,07,00,32,0.00
2013,11,07,00,33,0.00
2013,11,07,00,34,0.00
2013,11,07,00,35,0.00
2013,11,07,00,36,0.00
2013,11,07,00,37,0.00
2013,11,07,00,38,0.00
2013,11,07,00,39,0.00
2013,11,07,00,40,0.00
2013,11,07,00,41,0.00
2013,11,07,00,42,0.00
2013,11,07,00,43,0.00
2013,11,07,00,44,0.00
2013,11,07,00,45,0.00
2013,11,07,00,46,0.00
2013,11,07,00,47,0.00
2013,11,07,00,48,0.00
2013,11,07,00,49,0.00
2013,11,07,00,50,0.00
2013,11,07,00,51,0.00
2013,11,07,00,52,0.00
2013,11,07,00,53,0.00
2013,11,07,00,54,0.00
2013,11,07,00,55,0.00
2013,11,07,00,56,0.00
2013,11,07,00,57,0.00
2013,11,07,00,58,0.00
2013,11,07,00,59,0.00
2013,11,07,01,00,0.00
2013,11,07,01,01,0.00
2013,11,07,01,02,0.00
2013,11,07,01,03,0.00
2013,11,07,01,04,0.00
2013,11,07,01,05,0.00
2013,11,07,01,06,0.00
2013,11,07,01,07,0.00
2013,11,07,01,08,0.00
2013,11,07,01,09,0.00
2013,11,07,01,10,0.00
2013,11,07,01,11,0.00
2013,11,07,01,12,0.00
2013,11,07,01,13,0.00
2013,11,07,01,14,0.00
2013,11,07,01,15,0.00
2013,11,07,01,16,0.00
2013,11,07,01,17,0.00
2013,11,07,01,18,0.00
2013,11,07,01,19,0.00
2013,11,07,01,20,0.00
2013,11,07,01,21,0.00
2013,11,07,01,22,0.00
2013,11,07,01,23,0.00
2013,11,07,01,24,0.00
2013,11,07,01,25,0.00
2013,11,07,01,26,0.00
2013,11,07,01,27,0.00
2013,11,07,01,28,0.00
2013,11,07,01,29,0.00
2013,11,07,01,30,0.00
2013,11,07,01,31,0.00
2013,11,07,01,32,0.00
2013,11,07,01,33,0.00
2013,11,07,01,34,0.00
2013,11,07,01,35,0.00
2013,11,07,01,36,0.00
2013,11,07,01,37,0.00
2013,11,07,01,38,0.00
2013,11,07,01,39,0.00
2013,11,07,01,40,0.00
2013,11,07,01,41,0.00
2013,11,07,01,42,0.00
2013,11,07,01,43,0.00
2013,11,07,01,44,0.00
2013,11,07,01,45,0.00
2013,11,07,01,46,0.00
2013,11,07,01,47,0.00
2013,11,07,01,48,0.00
2013,11,07,01,49,0.00
2013,11,07,01,50,0.00
2013,11,07,01,51,0.00
2013,11,07,01,52,0.00
2013,11,07,01,53,0.00
2013,11,07,01,54,0.00
2013,11,07,01,55,0.00
2013,11,07,01,56,0.00
2013,11,07,01,57,0.00
2013,11,07,01,58,0.00
2013,11,07,01,59,0.00
2013,11,07,02,00,0.00
2013,11,07,02,01,0.00
2013,11,07,02,02,0.00
2013,11,07,02,03,0.00
2013,11,07,02,04,0.00
2013,11,07,02,05,0.00
2013,11,07,02,06,0.00
2013,11,07,02,07,0.00
2013,11,07,02,08,0.00
2013,11,07,02,09,0.00
2013,11,07,02,10,0.00
2013,11,07,02,11,0.00
2013,11,07,02,12,0.00
2013,11,07,02,13,0.00
2013,11,07,02,14,0.00
2013,11,07,02,15,0.00
2013,11,07,02,16,0.00
2013,11,07,02,17,0.00
2013,11,07,02,18,0.00
2013,11,07,02,19,0.00
2013,11,07,02,20,0.00
2013,11,07,02,21,0.00
2013,11,07,02,22,0.00
2013,11,07,02,23,0.00
2013,11,07,02,24,0.00
2013,11,07,02,25,0.00
2013,11,07,02,26,0.00
2013,11,07,02,27,0.00
2013,11,07,02,28,0.00
2013,11,07,02,29,0.00
2013,11,07,02,30,0.00
2013,11,07,02,31,0.00
2013,11,07,02,32,0.00
2013,11,07,02,33,0.00
2013,11,07,02,34,0.00
2013,11,07,02,35,0.00
2013,11,07,02,36,0.00
2013,11,07,02,37,0.00
2013,11,07,02,38,0.00
2013,11,07,02,39,0.00
2013,11,07,02,40,0.00
2013,11,07,02,41,0.00
2013,11,07,02,42,0.00
2013,11,07,02,43,0.00
2013,11,07,02,44,0.00
2013,11,07,02,45,0.00
2013,11,07,02,46,0.00
2013,11,07,02,47,0.00
2013,11,07,02,48,0.00
2013,11,07,02,49,0.00
2013,11,07,02,50,0.00
2013,11,07,02,51,0.00
2013,11,07,02,52,0.00
2013,11,07,02,53,0.00
2013,11,07,02,54,0.00
2013,11,07,02,55,0.00
2013,11,07,02,56,0.00
2013,11,07,02,57,0.00
2013,11,07,02,58,0.00
2013,11,07,02,59,0.00
2013,11,07,03,00,0.00
2013,11,07,03,01,0.00
2013,11,07,03,02,0.00
2013,11,07,03,03,0.00
2013,11,07,03,04,0.00
2013,11,07,03,05,0.00
2013,11,07,03,06,0.00
2013,11,07,03,07,0.00
2013,11,07,03,08,0.00
2013,11,07,03,09,0.00
2013,11,07,03,10,0.00
2013,11,07,03,11,0.00
2013,11,07,03,12,0.00
2013,11,07,03,13,0.00
2013,11,07,03,14,0.00
2013,11,07,03,15,0.00
2013,11,07,03,16,0.00
2013,11,07,03,17,0.00
2013,11,07,03,18,0.00
2013,11,07,03,19,0.00
2013,11,07,03,20,0.00
2013,11,07,03,21,0.00
2013,11,07,03,22,0.00
2013,11,07,03,23,0.00
2013,11,07,03,24,0.00
2013,11,07,03,25,0.00
2013,11,07,03,26,0.00
2013,11,07,03,27,0.00
2013,11,07,03,28,0.00
2013,11,07,03,29,0.00
2013,11,07,03,30,0.00
2013,11,07,03,31,0.00
2013,11,07,03,32,0.00
2013,11,07,03,33,0.00
2013,11,07,03,34,0.00
2013,11,07,03,35,0.00
2013,11,07,03,36,0.00
2013,11,07,03,37,0.00
2013,11,07,03,38,0.00
2013,11,07,03,39,0.00
2013,11,07,03,40,0.00
2013,11,07,03,41,0.00
2013,11,07,03,42,0.00
2013,11,07,03,43,0.00
2013,11,07,03,44,0.00
2013,11,07,03,45,0.00
2013,11,07,03,46,0.00
2013,11,07,03,47,0.00
2013,11,07,03,48,0.00
2013,11,07,03,49,0.00
2013,11,07,03,50,0.00
2013,11,07,03,51,0.00
2013,11,07,03,52,0.00
2013,11,07,03,53,0.00
2013,11,07,03,54,0.00
2013,11,07,03,55,0.00
2013,11,07,03,56,0.00
2013,11,07,03,57,0.00
2013,11,07,03,58,0.00
2013,11,07,03,59,0.00
2013,11,07,04,00,0.00
2013,11,07,04,01,0.00
2013,11,07,04,02,0.00
2013,11,07,04,03,0.00
2013,11,07,04,04,0.00
2013,11,07,04,05,0.00
2013,11,07,04,06,0.00
2013,11,07,04,07,0.00
2013,11,07,04,08,0.00
2013,11,07,04,09,0.00
2013,11,07,04,10,0.00
2013,11,07,04,11,0.00
2013,11,07,04,12,0.00
2013,11,07,04,13,0.00
2013,11,07,04,14,0.00
2013,11,07,04,15,0.00
2013,11,07,04,16,0.00
2013,11,07,04,17,0.00
2013,11,07,04,18,0.00
2013,11,07,04,19,0.00
2013,11,07,04,20,0.00
2013,11,07,04,21,0.00
2013,11,07,04,22,0.00
2013,11,07,04,23,0.00
2013,11,07,04,24,0.00
2013,11,07,04,25,0.00
2013,11,07,04,26,0.00
2013,11,07,04,27,0.00
2013,11,07,04,28,0.00
2013,11,07,04,29,0.00
2013,11,07,04,30,0.00
2013,11,07,04,31,0.00
2013,11,07,04,32,0.00
2013,11,07,04,33,0.00
2013,11,07,04,34,0.00
2013,11,07,04,35,0.00
2013,11,07,04,36,0.00
2013,11,07,04,37,0.00
2013,11,07,04,38,0.00
2013,11,07,04,39,0.00
2013,11,07,04,40,0.00
2013,11,07,04,41,0.00
2013,11,07,04,42,0.00
2013,11,07,04,43,0.00
2013,11,07,04,44,0.00
2013,11,07,04,45,0.00
2013,11,07,04,46,0.00
2013,11,07,04,47,0.00
2013,11,07,04,48,0.00
2013,11,07,04,49,0.00
2013,11,07,04,50,0.00
2013,11,07,04,51,0.00
2013,11,07,04,52,0.00
2013,11,07,04,53,0.00
2013,11,07,04,54,0.00
2013,11,07,04,55,0.00
2013,11,07,04,56,0.00
2013,11,07,04,57,0.00
2013,11,07,04,58,0.00
2013,11,07,04,59,0.00
2013,11,07,05,00,0.00
2013,11,07,05,01,0.00
2013,11,07,05,02,0.00
2013,11,07,05,03,0.00
2013,11,07,05,04,0.00
2013,11,07,05,05,0.00
2013,11,07,05,06,0.00
2013,11,07,05,07,0.00
2013,11,07,05,08,0.00
2013,11,07,05,09,0.00
2013,11,07,05,10,0.00
2013,11,07,05,11,0.00
2013,11,07,05,12,0.00
2013,11,07,05,13,0.00
2013,11,07,05,14,0.00
2013,11,07,05,15,0.00
2013,11,07,05,16,0.00
2013,11,07,05,17,0.00
2013,11,07,05,18,0.00
2013,11,07,05,19,0.00
2013,11,07,05,20,0.00
2013,11,07,05,21,0.00
2013,11,07,05,22,0.00
2013,11,07,05,23,0.00
2013,11,07,05,24,0.00
2013,11,07,05,25,0.00
2013,11,07,05,26,0.00
2013,11,07,05,27,0.00
2013,11,07,05,28,0.00
2013,11,07,05,29,0.00
2013,11,07,05,30,0.00
2013,11,07,05,31,0.00
2013,11,07,05,32,0.00
2013,11,07,05,33,0.00
2013,11,07,05,34,0.00
2013,11,07,05,35,0.00
2013,11,07,05,36,0.00
2013,11,07,05,37,0.00
2013,11,07,05,38,0.00
2013,11,07,05,39,0.00
2013,11,07,05,40,0.00
2013,11,07,05,41,0.00
2013,11,07,05,42,0.00
2013,11,07,05,43,0.00
2013,11,07,05,44,0.00
2013,11,07,05,45,0.00
2013,11,07,05,46,0.00
2013,11,07,05,47,0.00
2013,11,07,05,48,0.00
2013,11,07,05,49,0.00
2013,11,07,05,50,0.00
2013,11,07,05,51,0.00
2013,11,07,05,52,0.00
2013,11,07,05,53,0.00
2013,11,07,05,54,0.00
2013,11,07,05,55,0.00
2013,11,07,05,56,0.00
2013,11,07,05,57,0.00
2013,11,07,05,58,0.00
2013,11,07,05,59,0.00
2013,11,07,06,00,0.00
2013,11,07,06,01,0.00
2013,11,07,06,02,0.00
2013,11,07,06,03,0.00
2013,11,07,06,04,0.00
2013,11,07,06,05,0.00
2013,11,07,06,06,0.00
2013,11,07,06,07,0.00
2013,11,07,06,08,0.00
2013,11,07,06,09,0.00
2013,11,07,06,10,0.00
2013,11,07,06,11,0.00
2013,11,07,06,12,0.00
2013,11,07,06,13,0.00
2013,11,07,06,14,0.00
2013,11,07,06,15,0.00
2013,11,07,06,16,0.00
2013,11,07,06,17,0.00
2013,11,07,06,18,0.00
2013,11,07,06,19,0.00
2013,11,07,06,20,0.00
2013,11,07,06,21,0.00
2013,11,07,06,22,0.00
2013,11,07,06,23,0.00
2013,11,07,06,24,0.00
2013,11,07,06,25,0.00
2013,11,07,06,26,0.00
2013,11,07,06,27,0.00
2013,11,07,06,28,0.00
2013,11,07,06,29,0.00
2013,11,07,06,30,0.00
2013,11,07,06,31,0.00
2013,11,07,06,32,0.00
2013,11,07,06,33,0.00
2013,11,07,06,34,0.00
2013,11,07,06,35,0.00
2013,11,07,06,36,0.00
2013,11,07,06,37,0.00
2013,11,07,06,38,0.00
2013,11,07,06,39,0.00
2013,11,07,06,40,0.00
2013,11,07,06,41,0.00
2013,11,07,06,42,0.00
2013,11,07,06,43,0.00
2013,11,07,06,44,0.00
2013,11,07,06,45,0.00
2013,11,07,06,46,0.00
2013,11,07,06,47,0.00
2013,11,07,06,48,0.00
2013,11,07,06,49,0.00
2013,11,07,06,50,0.00
2013,11,07,06,51,0.00
2013,11,07,06,52,0.00
2013,11,07,06,53,0.00
2013,11,07,06,54,0.00
2013,11,07,06,55,0.00
2013,11,07,06,56,0.00
2013,11,07,06,57,0.00
2013,11,07,06,58,0.00
2013,11,07,06,59,0.00
2013,11,07,07,00,0.00
2013,11,07,07,01,0.00
2013,11,07,07,02,0.00
2013,11,07,07,03,0.00
2013,11,07,07,04,0.00
2013,11,07,07,05,0.00
2013,11,07,07,06,0.00
2013,11,07,07,07,0.00
2013,11,07,07,08,0.00
2013,11,07,07,09,0.00
2013,11,07,07,10,0.00
2013,11,07,07,11,0.00
2013,11,07,07,12,0.00
2013,11,07,07,13,0.00
2013,11,07,07,14,0.00
2013,11,07,07,15,0.00
2013,11,07,07,16,0.00
2013,11,07,07,17,0.00
2013,11,07,07,18,0.00
2013,11,07,07,19,0.00
2013,11,07,07,20,0.00
2013,11,07,07,21,0.00
2013,11,07,07,22,0.00
2013,11,07,07,23,0.00
2013,11,07,07,24,0.00
2013,11,07,07,25,0.00
2013,11,07,07,26,0.00
2013,11,07,07,27,0.00
2013,11,07,07,28,0.00
2013,11,07,07,29,0.00
2013,11,07,07,30,0.00
2013,11,07,07,31,0.00
2013,11,07,07,32,0.00
2013,11,07,07,33,0.00
2013,11,07,07,34,0.00
2013,11,07,07,35,0.00
2013,11,07,07,36,0.00
2013,11,07,07,37,0.00
2013,11,07,07,38,0.00
2013,11,07,07,39,0.00
2013,11,07,07,40,0.00
2013,11,07,07,41,0.00
2013,11,07,07,42,0.00
2013,11,07,07,43,0.00
2013,11,07,07,44,0.00
2013,11,07,07,45,0.00
2013,11,07,07,46,0.00
2013,11,07,07,47,0.00
2013,11,07,07,48,0.00
2013,11,07,07,49,0.00
2013,11,07,07,50,0.00
2013,11,07,07,51,0.00
2013,11,07,07,52,4.00
2013,11,07,07,53,6.70
2013,11,07,07,54,7.00
2013,11,07,07,55,10.60
2013,11,07,07,56,11.00
2013,11,07,07,57,11.00
2013,11,07,07,58,10.80
2013,11,07,07,59,9.00
2013,11,07,08,00,9.30
2013,11,07,08,01,11.00
2013,11,07,08,02,11.00
2013,11,07,08,03,11.00
2013,11,07,08,04,11.00
2013,11,07,08,05,11.00
2013,11,07,08,06,11.00
2013,11,07,08,07,11.50
2013,11,07,08,08,12.00
2013,11,07,08,09,12.00
2013,11,07,08,10,12.00
2013,11,07,08,11,11.40
2013,11,07,08,12,9.70
2013,11,07,08,13,7.60
2013,11,07,08,14,8.50
2013,11,07,08,15,10.60
2013,11,07,08,16,11.90
2013,11,07,08,17,13.70
2013,11,07,08,18,17.60
2013,11,07,08,19,20.90
2013,11,07,08,20,20.90
2013,11,07,08,21,19.20
2013,11,07,08,22,21.00
2013,11,07,08,23,20.40
2013,11,07,08,24,18.00
2013,11,07,08,25,18.00
2013,11,07,08,26,18.00
2013,11,07,08,27,18.00
2013,11,07,08,28,18.00
2013,11,07,08,29,18.00
2013,11,07,08,30,18.00
2013,11,07,08,31,17.00
2013,11,07,08,32,17.60
2013,11,07,08,33,19.00
2013,11,07,08,34,19.00
2013,11,07,08,35,20.30
2013,11,07,08,36,22.40
2013,11,07,08,37,23.00
2013,11,07,08,38,23.00
2013,11,07,08,39,18.80
2013,11,07,08,40,18.00
2013,11,07,08,41,18.90
2013,11,07,08,42,22.80
2013,11,07,08,43,28.20
2013,11,07,08,44,33.20
2013,11,07,08,45,35.00
2013,11,07,08,46,35.00
2013,11,07,08,47,35.00
2013,11,07,08,48,35.00
2013,11,07,08,49,35.60
2013,11,07,08,50,38.70
2013,11,07,08,51,44.70
2013,11,07,08,52,51.10
2013,11,07,08,53,55.90
2013,11,07,08,54,58.00
2013,11,07,08,55,57.00
2013,11,07,08,56,54.90
2013,11,07,08,57,54.00
2013,11,07,08,58,56.70
2013,11,07,08,59,56.60
2013,11,07,09,00,56.00
2013,11,07,09,01,56.00
2013,11,07,09,02,54.30
2013,11,07,09,03,54.00
2013,11,07,09,04,54.00
2013,11,07,09,05,54.00
2013,11,07,09,06,52.90
2013,11,07,09,07,50.80
2013,11,07,09,08,49.00
2013,11,07,09,09,48.70
2013,11,07,09,10,47.40
2013,11,07,09,11,49.50
2013,11,07,09,12,53.00
2013,11,07,09,13,60.30
2013,11,07,09,14,66.50
2013,11,07,09,15,69.00
2013,11,07,09,16,68.00
2013,11,07,09,17,67.00
2013,11,07,09,18,67.00
2013,11,07,09,19,67.00
2013,11,07,09,20,63.90
2013,11,07,09,21,56.70
2013,11,07,09,22,54.00
2013,11,07,09,23,55.50
2013,11,07,09,24,56.00
2013,11,07,09,25,57.70
2013,11,07,09,26,61.40
2013,11,07,09,27,62.00
2013,11,07,09,28,64.90
2013,11,07,09,29,62.80
2013,11,07,09,30,57.60
2013,11,07,09,31,54.60
2013,11,07,09,32,57.70
2013,11,07,09,33,56.00
2013,11,07,09,34,56.00
2013,11,07,09,35,55.40
2013,11,07,09,36,53.70
2013,11,07,09,37,52.20
2013,11,07,09,38,50.10
2013,11,07,09,39,47.60
2013,11,07,09,40,45.00
2013,11,07,09,41,44.00
2013,11,07,09,42,44.00
2013,11,07,09,43,44.00
2013,11,07,09,44,44.00
2013,11,07,09,45,42.60
2013,11,07,09,46,42.00
2013,11,07,09,47,39.60
2013,11,07,09,48,39.00
2013,11,07,09,49,39.90
2013,11,07,09,50,40.00
2013,11,07,09,51,40.00
2013,11,07,09,52,42.00
2013,11,07,09,53,42.40
2013,11,07,09,54,46.10
2013,11,07,09,55,47.30
2013,11,07,09,56,50.00
2013,11,07,09,57,55.90
2013,11,07,09,58,63.40
2013,11,07,09,59,68.70
2013,11,07,10,00,76.60
2013,11,07,10,01,89.60
2013,11,07,10,02,103.70
2013,11,07,10,03,136.70
2013,11,07,10,04,181.40
2013,11,07,10,05,189.90
2013,11,07,10,06,183.00
2013,11,07,10,07,223.70
2013,11,07,10,08,244.00
2013,11,07,10,09,425.30
2013,11,07,10,10,470.80
2013,11,07,10,11,468.00
2013,11,07,10,12,458.10
2013,11,07,10,13,442.50
2013,11,07,10,14,427.70
2013,11,07,10,15,428.90
2013,11,07,10,16,403.00
2013,11,07,10,17,156.00
2013,11,07,10,18,156.00
2013,11,07,10,19,163.40
2013,11,07,10,20,188.30
2013,11,07,10,21,194.70
2013,11,07,10,22,264.00
2013,11,07,10,23,264.00
2013,11,07,10,24,315.00
2013,11,07,10,25,383.00
2013,11,07,10,26,383.00
2013,11,07,10,27,383.00
2013,11,07,10,28,383.00
2013,11,07,10,29,412.70
2013,11,07,10,30,431.00
2013,11,07,10,31,306.70
2013,11,07,10,32,239.50
2013,11,07,10,33,241.30
2013,11,07,10,34,298.20
2013,11,07,10,35,308.00
2013,11,07,10,36,308.00
2013,11,07,10,37,169.00
2013,11,07,10,38,141.60
2013,11,07,10,39,131.10
2013,11,07,10,40,121.00
2013,11,07,10,41,107.90
2013,11,07,10,42,101.60
2013,11,07,10,43,100.00
2013,11,07,10,44,100.00
2013,11,07,10,45,99.30
2013,11,07,10,46,96.90
2013,11,07,10,47,94.10
2013,11,07,10,48,92.10
2013,11,07,10,49,90.50
2013,11,07,10,50,90.00
2013,11,07,10,51,88.90
2013,11,07,10,52,86.80
2013,11,07,10,53,86.00
2013,11,07,10,54,84.60
2013,11,07,10,55,85.50
2013,11,07,10,56,89.20
2013,11,07,10,57,92.60
2013,11,07,10,58,94.70
2013,11,07,10,59,95.00
2013,11,07,11,00,96.90
2013,11,07,11,01,97.00
2013,11,07,11,02,97.50
2013,11,07,11,03,102.40
2013,11,07,11,04,105.30
2013,11,07,11,05,107.40
2013,11,07,11,06,110.00
2013,11,07,11,07,113.90
2013,11,07,11,08,116.70
2013,11,07,11,09,120.70
2013,11,07,11,10,129.30
2013,11,07,11,11,150.20
2013,11,07,11,12,161.50
2013,11,07,11,13,155.50
2013,11,07,11,14,185.90
2013,11,07,11,15,212.10
2013,11,07,11,16,213.30
2013,11,07,11,17,220.10
2013,11,07,11,18,256.50
2013,11,07,11,19,316.60
2013,11,07,11,20,384.00
2013,11,07,11,21,412.40
2013,11,07,11,22,358.00
2013,11,07,11,23,432.00
2013,11,07,11,24,469.10
2013,11,07,11,25,471.40
2013,11,07,11,26,471.70
2013,11,07,11,27,455.50
2013,11,07,11,28,472.90
2013,11,07,11,29,451.90
2013,11,07,11,30,413.00
2013,11,07,11,31,340.30
2013,11,07,11,32,190.40
2013,11,07,11,33,180.90
2013,11,07,11,34,178.00
2013,11,07,11,35,178.00
2013,11,07,11,36,178.50
2013,11,07,11,37,179.00
2013,11,07,11,38,177.10
2013,11,07,11,39,174.70
2013,11,07,11,40,179.00
2013,11,07,11,41,177.20
2013,11,07,11,42,165.60
2013,11,07,11,43,162.20
2013,11,07,11,44,164.70
2013,11,07,11,45,183.10
2013,11,07,11,46,189.80
2013,11,07,11,47,199.10
2013,11,07,11,48,209.50
2013,11,07,11,49,195.60
2013,11,07,11,50,199.80
2013,11,07,11,51,201.90
2013,11,07,11,52,189.00
2013,11,07,11,53,172.90
2013,11,07,11,54,163.30
2013,11,07,11,55,160.00
2013,11,07,11,56,162.10
2013,11,07,11,57,168.10
2013,11,07,11,58,174.90
2013,11,07,11,59,180.60
2013,11,07,12,00,184.10
2013,11,07,12,01,191.20
2013,11,07,12,02,211.70
2013,11,07,12,03,231.40
2013,11,07,12,04,242.10
2013,11,07,12,05,248.80
2013,11,07,12,06,246.80
2013,11,07,12,07,253.70
2013,11,07,12,08,245.00
2013,11,07,12,09,232.60
2013,11,07,12,10,214.30
2013,11,07,12,11,221.20
2013,11,07,12,12,223.00
2013,11,07,12,13,227.50
2013,11,07,12,14,257.00
2013,11,07,12,15,279.00
2013,11,07,12,16,297.00
2013,11,07,12,17,304.30
2013,11,07,12,18,308.60
2013,11,07,12,19,300.30
2013,11,07,12,20,283.70
2013,11,07,12,21,270.80
2013,11,07,12,22,258.70
2013,11,07,12,23,259.90
2013,11,07,12,24,268.70
2013,11,07,12,25,300.30
2013,11,07,12,26,328.60
2013,11,07,12,27,344.50
2013,11,07,12,28,405.20
2013,11,07,12,29,422.00
2013,11,07,12,30,422.00
2013,11,07,12,31,394.90
2013,11,07,12,32,392.00
2013,11,07,12,33,219.70
2013,11,07,12,34,191.20
2013,11,07,12,35,172.00
2013,11,07,12,36,158.60
2013,11,07,12,37,149.70
2013,11,07,12,38,142.30
2013,11,07,12,39,135.00
2013,11,07,12,40,127.70
2013,11,07,12,41,121.00
2013,11,07,12,42,115.90
2013,11,07,12,43,112.00
2013,11,07,12,44,110.00
2013,11,07,12,45,106.90
2013,11,07,12,46,105.00
2013,11,07,12,47,105.00
2013,11,07,12,48,105.00
2013,11,07,12,49,105.00
2013,11,07,12,50,104.20
2013,11,07,12,51,104.00
2013,11,07,12,52,104.80
2013,11,07,12,53,106.70
2013,11,07,12,54,108.80
2013,11,07,12,55,112.80
2013,11,07,12,56,118.00
2013,11,07,12,57,123.50
2013,11,07,12,58,129.00
2013,11,07,12,59,136.30
2013,11,07,13,00,143.80
2013,11,07,13,01,152.70
2013,11,07,13,02,159.10
2013,11,07,13,03,162.30
2013,11,07,13,04,163.80
2013,11,07,13,05,164.10
2013,11,07,13,06,162.50
2013,11,07,13,07,162.00
2013,11,07,13,08,162.50
2013,11,07,13,09,164.10
2013,11,07,13,10,168.70
2013,11,07,13,11,169.70
2013,11,07,13,12,167.60
2013,11,07,13,13,167.00
2013,11,07,13,14,168.60
2013,11,07,13,15,170.60
2013,11,07,13,16,188.10
2013,11,07,13,17,232.50
2013,11,07,13,18,218.90
2013,11,07,13,19,159.70
2013,11,07,13,20,152.30
2013,11,07,13,21,144.00
2013,11,07,13,22,131.40
2013,11,07,13,23,127.80
2013,11,07,13,24,130.30
2013,11,07,13,25,144.40
2013,11,07,13,26,153.70
2013,11,07,13,27,155.00
2013,11,07,13,28,153.30
2013,11,07,13,29,153.20
2013,11,07,13,30,165.00
2013,11,07,13,31,174.00
2013,11,07,13,32,158.00
2013,11,07,13,33,136.10
2013,11,07,13,34,124.00
2013,11,07,13,35,120.30
2013,11,07,13,36,130.70
2013,11,07,13,37,143.70
2013,11,07,13,38,146.00
2013,11,07,13,39,140.00
2013,11,07,13,40,121.80
2013,11,07,13,41,114.30
2013,11,07,13,42,107.10
2013,11,07,13,43,108.50
2013,11,07,13,44,103.40
2013,11,07,13,45,102.70
2013,11,07,13,46,124.70
2013,11,07,13,47,152.00
2013,11,07,13,48,145.00
2013,11,07,13,49,133.30
2013,11,07,13,50,130.00
2013,11,07,13,51,124.00
2013,11,07,13,52,116.00
2013,11,07,13,53,112.50
2013,11,07,13,54,109.00
2013,11,07,13,55,103.90
2013,11,07,13,56,96.90
2013,11,07,13,57,91.70
2013,11,07,13,58,85.00
2013,11,07,13,59,83.00
2013,11,07,14,00,83.00
2013,11,07,14,01,83.00
2013,11,07,14,02,83.00
2013,11,07,14,03,83.00
2013,11,07,14,04,83.00
2013,11,07,14,05,46.70
2013,11,07,14,06,39.80
2013,11,07,14,07,34.70
2013,11,07,14,08,33.30
2013,11,07,14,09,35.00
2013,11,07,14,10,34.50
2013,11,07,14,11,33.00
2013,11,07,14,12,32.70
2013,11,07,14,13,30.50
2013,11,07,14,14,26.70
2013,11,07,14,15,24.10
2013,11,07,14,16,22.00
2013,11,07,14,17,18.40
2013,11,07,14,18,13.70
2013,11,07,14,19,13.20
2013,11,07,14,20,15.30
2013,11,07,14,21,16.00
2013,11,07,14,22,17.50
2013,11,07,14,23,20.40
2013,11,07,14,24,21.00
2013,11,07,14,25,21.00
2013,11,07,14,26,22.80
2013,11,07,14,27,21.10
2013,11,07,14,28,19.30
2013,11,07,14,29,25.10
2013,11,07,14,30,26.00
2013,11,07,14,31,25.90
2013,11,07,14,32,25.20
2013,11,07,14,33,27.70
2013,11,07,14,34,33.60
2013,11,07,14,35,35.00
2013,11,07,14,36,33.90
2013,11,07,14,37,32.00
2013,11,07,14,38,32.50
2013,11,07,14,39,33.00
2013,11,07,14,40,36.80
2013,11,07,14,41,42.30
2013,11,07,14,42,45.90
2013,11,07,14,43,49.70
2013,11,07,14,44,52.40
2013,11,07,14,45,53.00
2013,11,07,14,46,53.80
2013,11,07,14,47,54.00
2013,11,07,14,48,54.00
2013,11,07,14,49,54.00
2013,11,07,14,50,54.00
2013,11,07,14,51,54.00
2013,11,07,14,52,52.80
2013,11,07,14,53,50.70
2013,11,07,14,54,48.70
2013,11,07,14,55,46.80
2013,11,07,14,56,45.50
2013,11,07,14,57,43.40
2013,11,07,14,58,41.30
2013,11,07,14,59,39.60
2013,11,07,15,00,39.00
2013,11,07,15,01,38.00
2013,11,07,15,02,36.00
2013,11,07,15,03,35.00
2013,11,07,15,04,33.90
2013,11,07,15,05,33.00
2013,11,07,15,06,34.30
2013,11,07,15,07,35.00
2013,11,07,15,08,36.50
2013,11,07,15,09,37.00
2013,11,07,15,10,37.00
2013,11,07,15,11,38.70
2013,11,07,15,12,39.00
2013,11,07,15,13,37.10
2013,11,07,15,14,37.00
2013,11,07,15,15,37.00
2013,11,07,15,16,37.00
2013,11,07,15,17,36.70
2013,11,07,15,18,35.00
2013,11,07,15,19,35.00
2013,11,07,15,20,35.00
2013,11,07,15,21,35.70
2013,11,07,15,22,37.00
2013,11,07,15,23,37.90
2013,11,07,15,24,39.00
2013,11,07,15,25,39.50
2013,11,07,15,26,40.00
2013,11,07,15,27,41.10
2013,11,07,15,28,42.00
2013,11,07,15,29,44.70
2013,11,07,15,30,46.70
2013,11,07,15,31,44.70
2013,11,07,15,32,40.80
2013,11,07,15,33,34.30
2013,11,07,15,34,28.70
2013,11,07,15,35,23.50
2013,11,07,15,36,19.40
2013,11,07,15,37,19.00
2013,11,07,15,38,17.60
2013,11,07,15,39,13.70
2013,11,07,15,40,12.00
2013,11,07,15,41,12.40
2013,11,07,15,42,14.50
2013,11,07,15,43,16.60
2013,11,07,15,44,19.00
2013,11,07,15,45,23.70
2013,11,07,15,46,30.10
2013,11,07,15,47,35.70
2013,11,07,15,48,39.50
2013,11,07,15,49,40.00
2013,11,07,15,50,38.30
2013,11,07,15,51,34.50
2013,11,07,15,52,29.70
2013,11,07,15,53,24.40
2013,11,07,15,54,19.20
2013,11,07,15,55,14.80
2013,11,07,15,56,12.40
2013,11,07,15,57,11.10
2013,11,07,15,58,11.00
2013,11,07,15,59,9.10
2013,11,07,16,00,8.90
2013,11,07,16,01,7.00
2013,11,07,16,02,7.00
2013,11,07,16,03,7.00
2013,11,07,16,04,7.00
2013,11,07,16,05,7.00
2013,11,07,16,06,7.00
2013,11,07,16,07,7.00
2013,11,07,16,08,7.00
2013,11,07,16,09,7.00
2013,11,07,16,10,6.10
2013,11,07,16,11,5.00
2013,11,07,16,12,5.00
2013,11,07,16,13,5.00
2013,11,07,16,14,6.20
2013,11,07,16,15,7.00
2013,11,07,16,16,7.00
2013,11,07,16,17,7.00
2013,11,07,16,18,5.40
2013,11,07,16,19,5.00
2013,11,07,16,20,5.00
2013,11,07,16,21,5.00
2013,11,07,16,22,0.20
2013,11,07,16,23,0.20
2013,11,07,16,24,4.50
2013,11,07,16,25,0.00
2013,11,07,16,26,0.00
2013,11,07,16,27,0.00
2013,11,07,16,28,0.00
2013,11,07,16,29,0.00
2013,11,07,16,30,0.00
2013,11,07,16,31,0.00
2013,11,07,16,32,0.00
2013,11,07,16,33,0.00
2013,11,07,16,34,0.00
2013,11,07,16,35,0.00
2013,11,07,16,36,0.00
2013,11,07,16,37,0.00
2013,11,07,16,38,0.00
2013,11,07,16,39,0.00
2013,11,07,16,40,0.00
2013,11,07,16,41,0.00
2013,11,07,16,42,0.00
2013,11,07,16,43,0.00
2013,11,07,16,44,0.00
2013,11,07,16,45,0.00
2013,11,07,16,46,0.00
2013,11,07,16,47,0.00
2013,11,07,16,48,0.00
2013,11,07,16,49,0.00
2013,11,07,16,50,0.00
2013,11,07,16,51,0.00
2013,11,07,16,52,0.00
2013,11,07,16,53,0.00
2013,11,07,16,54,0.00
2013,11,07,16,55,0.00
2013,11,07,16,56,0.00
2013,11,07,16,57,0.00
2013,11,07,16,58,0.00
2013,11,07,16,59,0.00
2013,11,07,17,00,0.00
2013,11,07,17,01,0.00
2013,11,07,17,02,0.00
2013,11,07,17,03,0.00
2013,11,07,17,04,0.00
2013,11,07,17,05,0.00
2013,11,07,17,06,0.00
2013,11,07,17,07,0.00
2013,11,07,17,08,0.00
2013,11,07,17,09,0.00
2013,11,07,17,10,0.00
2013,11,07,17,11,0.00
2013,11,07,17,12,0.00
2013,11,07,17,13,0.00
2013,11,07,17,14,0.00
2013,11,07,17,15,0.00
2013,11,07,17,16,0.00
2013,11,07,17,17,0.00
2013,11,07,17,18,0.00
2013,11,07,17,19,0.00
2013,11,07,17,20,0.00
2013,11,07,17,21,0.00
2013,11,07,17,22,0.00
2013,11,07,17,23,0.00
2013,11,07,17,24,0.00
2013,11,07,17,25,0.00
2013,11,07,17,26,0.00
2013,11,07,17,27,0.00
2013,11,07,17,28,0.00
2013,11,07,17,29,0.00
2013,11,07,17,30,0.00
2013,11,07,17,31,0.00
2013,11,07,17,32,0.00
2013,11,07,17,33,0.00
2013,11,07,17,34,0.00
2013,11,07,17,35,0.00